sat.trackr.live / text

‹ back to catalog

TJS-3

NORAD 43874 · 2018-110A

PAYLOAD ACTIVE UNKNOWN

§ Identity

Operator
Country
PRC
Launch date
2018-12-24
Launch site
XICLF
Launch vehicle
Mass (kg)
RCS (m²)

Purposes: comms

External: N2YO · Heavens-Above · Gunter

§ Orbital elements

Epoch: 2026-09-08T20:00:48.945312Z

Period
1,433.53 min
Inclination
2.7541°
Eccentricity
0.0004022
Mean motion
1.00451643 rev/d
Perigee alt
35,719.3 km
Apogee alt
35,753.2 km
Semi-major
42,114.4 km
B*
0.0000e+0
RAAN
79.4074°
Arg perigee
137.8123°
Mean anomaly
234.5332°
Rev number
2,826

§ Raw data

TJS-31 43874U 18110A   26251.83389983 -.00000061  00000+0  00000+0 0  99902 43874   2.7541  79.4074 0004022 137.8123 234.5332  1.00451643 28265

JSON: /api/v1/satellites/43874 · /tle

For live sub-satellite position, see the globe view (requires WebGL).

§ Visibility from observer

Set your observer location to see the next 7 days of passes ≥ 10°. The values pass through the URL so the page stays shareable.

No JS? Fill the form by hand. The geolocation button needs JavaScript.